[[{"header":{"parameterUnit":"m.s-1","parameterCategory":1,"la1":30.2991,"la2":30.254,"lo1":-89.0895,"lo2":-89.0444,"dy":0.0017,"dx":0.0017,"nx":28,"ny":28,"refTime":"2023-08-29T09:00:00:Z","depth":0,"parameterNumber":2,"parameterNumberName":"U-component_of_WINDS"},"data":[0,0,0,0,0,0,0,0,0,0,0,0,0,0,0,0,0,0,0,0,0,0,0,0,0,0,0,0,0,0,0,0,0,0,0,0,0,0,0,0,0,0,0,0,0,0,0,0,0,0,0,0,0,0,0,0,0,0,-2.5917,-2.5918,0,-2.5991,-2.5992,-2.5992,-2.5938,-2.5935,-2.5933,-2.5931,-2.6009,-2.6013,-2.6018,0,0,0,0,0,0,0,0,0,0,0,0,0,-2.5728,-2.5732,-2.5917,-2.5918,-2.5919,-2.5991,-2.5992,-2.5993,-2.5938,-2.5935,-2.5932,-2.593,-2.6008,-2.6013,-2.6018,0,0,0,0,0,0,0,0,0,0,0,0,0,-2.5807,-2.5733,-2.5916,-2.59,-2.5899,-2.599,-2.5992,-2.5993,-2.5939,-2.5935,-2.5932,-2.5928,-2.6006,-2.6012,-2.6019,-2.6131,0,0,-2.6039,-2.6042,0,0,0,0,0,0,0,0,-2.5803,-2.5814,-2.5901,-2.5901,-2.5901,-2.5951,-2.5954,-2.6039,-2.594,-2.5924,-2.5931,-2.5926,-2.5993,-2.6,-2.6022,-2.6135,-2.6138,-2.6039,-2.6043,-2.6046,-2.6048,0,0,0,0,0,0,0,-2.5797,-2.581,-2.5946,-2.5903,-2.5902,-2.5889,-2.5896,-2.597,-2.5978,-2.5925,-2.5921,-2.593,-2.5992,-2.6016,-2.6024,-2.6139,-2.6039,-2.6045,-2.6049,-2.6051,-2.6346,-2.6349,0,0,0,0,0,0,-2.5793,-2.5806,-2.5944,-2.5948,-2.5842,-2.5895,-2.5903,-2.5939,-2.5977,-2.5979,-2.5933,-2.5928,-2.6007,-2.6016,-2.6026,-2.616,-2.6046,-2.6052,-2.6056,-2.6342,-2.6346,-2.6351,0,0,0,0,0,0,-2.5789,-2.5806,-2.5941,-2.5876,-2.5892,-2.5902,-2.5942,-2.5942,-2.5966,-2.5983,-2.5985,-2.5957,-2.6004,-2.6017,-2.6105,-2.6162,-2.6055,-2.6061,-2.6337,-2.6343,-2.6348,-2.6428,0,0,0,0,0,0,-2.5784,-2.5805,-2.5848,-2.5878,-2.5896,-2.6018,-2.5946,-2.5946,-2.5977,-2.597,-2.6005,-2.6008,-2.6002,-2.6095,-2.6111,-2.6169,-2.6066,-2.6332,-2.634,-2.6347,-2.642,-2.6435,-2.6449,0,0,0,0,0,-2.5778,-2.5868,-2.5851,-2.5867,-2.595,-2.6022,-2.6032,-2.6024,-2.5982,-2.6025,-2.6036,-2.6007,-2.6152,-2.6105,-2.6122,-2.6182,-2.6328,-2.6338,-2.6346,-2.6414,-2.6432,-2.6448,0,0,0,0,0,0,-2.5847,-2.5872,-2.5853,-2.5956,-2.5987,-2.6012,-2.6067,-2.6044,-2.6089,-2.6081,-2.6068,-2.6077,-2.6169,-2.6184,-2.6131,-2.6292,-2.6234,-2.6246,-2.6279,-2.6297,-2.6311,-2.6306,-2.6071,0,0,0,0,0,-2.5874,-2.593,-2.5949,-2.6038,-2.6054,-2.6058,-2.6089,-2.6079,-2.6111,-2.6125,-2.6142,-2.6175,-2.6227,-2.6263,-2.6312,-2.6421,-2.6427,-2.647,-2.6485,-2.6496,-2.6508,-2.6565,-2.6585,-2.6379,-2.6379,-2.6379,0,0,-2.5932,-2.5952,-2.5988,-2.6052,-2.6075,-2.6133,-2.607,-2.6134,-2.6177,-2.6135,-2.6218,-2.6232,-2.6267,-2.6365,-2.641,-2.6381,-2.6566,-2.6508,-2.6517,-2.6522,-2.6576,-2.6596,-2.6613,-2.6385,-2.6384,-2.6383,0,0,-2.6065,-2.6086,-2.6162,-2.6186,-2.622,-2.6222,-2.624,-2.6268,-2.6275,-2.6358,-2.6327,-2.6377,-2.6469,-2.6495,-2.652,-2.666,-2.6635,-2.6676,-2.6752,-2.6808,-2.6824,-2.6838,-2.6888,-2.6906,-2.6687,-2.6688,-2.6688,0,-2.6133,-2.6219,-2.6205,-2.6271,-2.6299,-2.6261,-2.6337,-2.6361,-2.6411,-2.6432,-2.6398,-2.651,-2.6532,-2.6635,-2.6668,-2.669,-2.671,-2.6673,-2.6822,-2.6837,-2.685,-2.6897,-2.6916,-2.6692,-2.6692,-2.6691,-2.6691,0,-2.6299,-2.6359,-2.6416,-2.6463,-2.6498,-2.6569,-2.6565,-2.6602,-2.6588,-2.6592,-2.6676,-2.67,-2.6753,-2.6776,-2.6764,-2.6877,-2.6858,-2.6824,-2.6766,-2.6875,-2.6919,-2.6937,-2.6699,-2.6698,-2.6696,-2.6695,0,0,-2.6484,-2.6518,-2.654,-2.656,-2.6593,-2.664,-2.6708,-2.6758,-2.6789,-2.6824,-2.6881,-2.6957,-2.6925,-2.6953,-2.6943,-2.6992,-2.71,-2.6951,-2.6952,-2.6979,-2.7226,-2.7252,-2.7274,-2.7082,-2.7086,-2.7088,-2.7223,0,-2.6619,-2.6738,-2.6726,-2.6839,-2.6893,-2.6855,-2.6914,-2.6941,-2.6946,-2.6993,-2.6998,-2.7053,-2.7006,-2.7022,-2.7069,-2.7077,-2.715,-2.7067,-2.7136,-2.7139,-2.713,-2.7297,-2.7326,-2.7452,-2.724,-2.7243,-2.7245,0,-2.6795,-2.6834,-2.6952,-2.6975,-2.6997,-2.7051,-2.7094,-2.7139,-2.7168,-2.7168,-2.7198,-2.7178,-2.7246,-2.7184,-2.7278,-2.7222,-2.7248,-2.7256,-2.7261,-2.7269,-2.72,-2.731,-2.7492,-2.7511,-2.7272,-2.727,-2.7268,0,-2.6918,-2.7,-2.708,-2.7098,-2.7127,-2.7165,-2.7179,-2.7204,-2.7234,-2.7272,-2.7291,-2.7337,-2.7362,-2.7398,-2.7391,-2.7346,-2.7486,-2.7423,-2.7488,-2.7488,-2.7522,-2.752,-2.7711,-2.7536,-2.7536,-2.7536,-2.7535,0,-2.7073,-2.7147,-2.7135,-2.7186,-2.7266,-2.725,-2.7331,-2.734,-2.7361,-2.7412,-2.7381,-2.743,-2.7416,-2.7464,-2.7458,-2.7536,-2.7548,-2.755,-2.7548,-2.7554,-2.7554,-2.7573,-2.7565,-2.7541,-2.7539,-2.7538,-2.7538,0,-2.7226,-2.7221,-2.7306,-2.7325,-2.7331,-2.739,-2.7406,-2.7452,-2.7453,-2.7517,-2.7531,-2.7533,-2.7587,-2.7582,-2.7643,-2.7639,-2.7736,-2.7723,-2.7726,-2.7724,-2.7789,-2.7784,-2.8001,-2.8029,-2.7834,-2.7836,-2.7838,0,-2.7326,-2.7381,-2.7404,-2.7435,-2.7451,-2.7502,-2.7531,-2.7516,-2.7549,-2.7583,-2.7626,-2.7676,-2.7716,-2.7804,-2.7811,-2.7857,-2.7845,-2.7918,-2.7853,-2.7856,-2.7848,-2.7845,-2.785,-2.7932,-2.7935,-2.7936,-2.7938,0,-2.7504,-2.7497,-2.7541,-2.7583,-2.7619,-2.7652,-2.7682,-2.7709,-2.7696,-2.7734,-2.7787,-2.7818,-2.7879,-2.7929,-2.7972,-2.7986,-2.7961,-2.7958,-2.7975,-2.7983,-2.7983,-2.7984,-2.7763,-2.7954,-2.7952,-2.7951,-2.795,-2.7949,-2.7634,-2.7681,-2.7704,-2.7753,-2.7772,-2.78,-2.7844,-2.7849,-2.7893,-2.7941,-2.7928,-2.7989,-2.8013,-2.8068,-2.8086,-2.8133,-2.8107,-2.8132,-2.8139,-2.8146,-2.8154,-2.7973,-2.814,-2.814,-2.814,-2.8139,-2.8139,0,-2.7811,-2.7823,-2.7868,-2.7909,-2.7947,-2.7916,-2.7946,-2.798,-2.8034,-2.8058,-2.8097,-2.8158,-2.8205,-2.8214,-2.826,-2.8296,-2.8285,-2.8308,-2.8307,-2.831,-2.8174,-2.8155,-2.8316,-2.8316,-2.8316,-2.8316,-2.8316,-2.8316,-2.7908,-2.7985,-2.7981,-2.8067,-2.8078,-2.8137,-2.8157,-2.8181,-2.82,-2.8269,-2.8308,-2.8313,-2.8331,-2.8377,-2.8419,-2.842,-2.8439,-2.8467,-2.8464,-2.8338,-2.832,-2.8303,-2.8285,-2.8471,-2.8471,-2.8596,-2.8597,-2.8598]},{"header":{"parameterUnit":"m.s-1","parameterCategory":1,"la1":30.2991,"la2":30.254,"lo1":-89.0895,"lo2":-89.0444,"dy":0.0017,"dx":0.0017,"nx":28,"ny":28,"refTime":"2023-08-29T09:00:00:Z","depth":0,"parameterNumber":3,"parameterNumberName":"V-component_of_WINDS"},"data":[0,0,0,0,0,0,0,0,0,0,0,0,0,0,0,0,0,0,0,0,0,0,0,0,0,0,0,0,0,0,0,0,0,0,0,0,0,0,0,0,0,0,0,0,0,0,0,0,0,0,0,0,0,0,0,0,0,0,-5.4688,-5.4689,0,-5.4793,-5.4794,-5.4795,-5.4732,-5.4729,-5.4726,-5.4723,-5.4826,-5.4832,-5.4837,0,0,0,0,0,0,0,0,0,0,0,0,0,-5.4426,-5.4431,-5.4688,-5.4689,-5.469,-5.4793,-5.4794,-5.4796,-5.4733,-5.4729,-5.4725,-5.4722,-5.4824,-5.4831,-5.4838,0,0,0,0,0,0,0,0,0,0,0,0,0,-5.4536,-5.4433,-5.4687,-5.4671,-5.4671,-5.4793,-5.4794,-5.4796,-5.4733,-5.4729,-5.4724,-5.472,-5.4822,-5.483,-5.4839,-5.4981,0,0,-5.4864,-5.4868,0,0,0,0,0,0,0,0,-5.453,-5.4546,-5.4672,-5.4673,-5.4672,-5.4745,-5.474,-5.4858,-5.4734,-5.471,-5.4723,-5.4718,-5.4803,-5.4812,-5.4842,-5.4985,-5.499,-5.4865,-5.487,-5.4873,-5.4876,0,0,0,0,0,0,0,-5.4523,-5.4541,-5.4729,-5.4674,-5.4674,-5.4657,-5.4668,-5.4762,-5.478,-5.4711,-5.4707,-5.4721,-5.4802,-5.4834,-5.4844,-5.4991,-5.4865,-5.4872,-5.4877,-5.488,-5.5254,-5.5259,0,0,0,0,0,0,-5.4517,-5.4535,-5.4726,-5.4732,-5.4589,-5.4665,-5.4677,-5.4726,-5.4779,-5.4783,-5.4724,-5.4717,-5.4822,-5.4834,-5.4847,-5.5015,-5.4873,-5.4881,-5.4886,-5.5249,-5.5255,-5.5261,0,0,0,0,0,0,-5.4512,-5.4535,-5.4722,-5.4633,-5.4655,-5.4675,-5.473,-5.4731,-5.4763,-5.4789,-5.4791,-5.4754,-5.4819,-5.4835,-5.4948,-5.5018,-5.4885,-5.4892,-5.5244,-5.5251,-5.5258,-5.5354,0,0,0,0,0,0,-5.4504,-5.4533,-5.4589,-5.4635,-5.466,-5.4823,-5.4734,-5.4736,-5.4778,-5.477,-5.4817,-5.4821,-5.4816,-5.4936,-5.4956,-5.5027,-5.4899,-5.5237,-5.5247,-5.5256,-5.5344,-5.5363,-5.538,0,0,0,0,0,-5.4495,-5.4611,-5.4592,-5.4615,-5.473,-5.4827,-5.4841,-5.4835,-5.4784,-5.4839,-5.4855,-5.4819,-5.5007,-5.4948,-5.497,-5.5045,-5.5233,-5.5244,-5.5255,-5.5336,-5.536,-5.5379,0,0,0,0,0,0,-5.4571,-5.4617,-5.4596,-5.473,-5.4775,-5.4816,-5.4885,-5.486,-5.492,-5.4909,-5.4897,-5.4909,-5.5026,-5.5046,-5.4979,-5.5184,-5.5112,-5.5128,-5.5166,-5.5188,-5.5206,-5.5197,-5.4906,0,0,0,0,0,-5.4604,-5.468,-5.4715,-5.483,-5.4854,-5.4866,-5.4907,-5.4899,-5.4944,-5.4963,-5.4987,-5.5031,-5.51,-5.5145,-5.521,-5.5347,-5.5355,-5.5409,-5.5427,-5.5442,-5.5455,-5.5527,-5.5551,-5.5297,-5.5297,-5.5297,0,0,-5.4671,-5.4706,-5.4754,-5.4846,-5.488,-5.4957,-5.4882,-5.4967,-5.5024,-5.4975,-5.5083,-5.5102,-5.515,-5.5275,-5.5332,-5.5296,-5.5527,-5.5456,-5.5467,-5.5473,-5.5541,-5.5565,-5.5586,-5.5305,-5.5303,-5.5302,0,0,-5.4834,-5.4869,-5.4967,-5.5003,-5.5056,-5.5063,-5.5087,-5.5131,-5.5143,-5.5251,-5.5215,-5.5281,-5.5401,-5.5436,-5.547,-5.5645,-5.5613,-5.5666,-5.5758,-5.5828,-5.5848,-5.5866,-5.5926,-5.5948,-5.568,-5.568,-5.568,0,-5.4911,-5.5027,-5.502,-5.5108,-5.5149,-5.511,-5.5208,-5.5243,-5.5313,-5.5341,-5.5301,-5.5449,-5.5479,-5.561,-5.5653,-5.5682,-5.5707,-5.566,-5.5846,-5.5864,-5.588,-5.5937,-5.596,-5.5686,-5.5685,-5.5685,-5.5684,0,-5.5118,-5.5199,-5.5272,-5.5343,-5.5392,-5.5484,-5.549,-5.5539,-5.5527,-5.5537,-5.5647,-5.5681,-5.5751,-5.5782,-5.577,-5.5912,-5.5888,-5.5848,-5.5775,-5.591,-5.5964,-5.5986,-5.5694,-5.5692,-5.569,-5.5689,0,0,-5.5331,-5.5396,-5.5423,-5.5454,-5.5509,-5.5571,-5.5661,-5.5731,-5.5773,-5.5823,-5.5896,-5.5998,-5.596,-5.5998,-5.599,-5.6052,-5.6186,-5.6003,-5.6004,-5.6034,-5.6341,-5.637,-5.6396,-5.6166,-5.617,-5.6173,-5.6337,0,-5.5495,-5.5654,-5.565,-5.5797,-5.5871,-5.5835,-5.5912,-5.5954,-5.5966,-5.6029,-5.6041,-5.6113,-5.6059,-5.6082,-5.6142,-5.6157,-5.6247,-5.6145,-5.6232,-5.6235,-5.6219,-5.6425,-5.6456,-5.6608,-5.6358,-5.6361,-5.6364,0,-5.5708,-5.5766,-5.5921,-5.5964,-5.5994,-5.6065,-5.6128,-5.619,-5.6234,-5.6239,-5.6282,-5.6263,-5.6352,-5.6278,-5.6399,-5.633,-5.6365,-5.6378,-5.6383,-5.639,-5.6306,-5.6435,-5.6657,-5.6679,-5.6397,-5.6395,-5.6392,0,-5.5845,-5.5962,-5.6069,-5.6097,-5.615,-5.62,-5.6224,-5.6265,-5.6307,-5.6362,-5.6388,-5.6453,-5.6487,-5.6536,-5.6534,-5.6481,-5.6656,-5.6582,-5.666,-5.666,-5.6697,-5.6695,-5.6927,-5.6724,-5.6723,-5.6723,-5.6722,0,-5.6028,-5.6123,-5.6131,-5.6197,-5.6302,-5.6296,-5.64,-5.6419,-5.6455,-5.6522,-5.6495,-5.6558,-5.6553,-5.6616,-5.6615,-5.6714,-5.673,-5.6735,-5.6733,-5.6736,-5.6736,-5.6758,-5.6747,-5.6729,-5.6727,-5.6726,-5.6725,0,-5.6198,-5.6208,-5.6322,-5.6363,-5.6376,-5.6451,-5.6486,-5.6547,-5.6557,-5.6642,-5.6662,-5.6677,-5.675,-5.6754,-5.6837,-5.6836,-5.6956,-5.6944,-5.6942,-5.6939,-5.7016,-5.7008,-5.7269,-5.7302,-5.7079,-5.7081,-5.7083,0,-5.6313,-5.6386,-5.6435,-5.6479,-5.6507,-5.6578,-5.6621,-5.6617,-5.6662,-5.6719,-5.6773,-5.6844,-5.69,-5.7018,-5.7035,-5.7098,-5.7085,-5.7173,-5.7094,-5.7095,-5.7084,-5.7079,-5.7085,-5.7187,-5.719,-5.7192,-5.7193,0,-5.6516,-5.6517,-5.6581,-5.6646,-5.6699,-5.675,-5.6797,-5.6834,-5.6835,-5.6888,-5.6963,-5.7006,-5.7092,-5.7162,-5.7223,-5.7246,-5.7219,-5.7218,-5.7239,-5.7242,-5.7237,-5.7239,-5.6981,-5.7212,-5.721,-5.7208,-5.7207,-5.7207,-5.6661,-5.6723,-5.6768,-5.6839,-5.6875,-5.6919,-5.6979,-5.6997,-5.706,-5.713,-5.7124,-5.7207,-5.7248,-5.7328,-5.7356,-5.7419,-5.7388,-5.7419,-5.7427,-5.7434,-5.7441,-5.7229,-5.743,-5.743,-5.7429,-5.7429,-5.7428,0,-5.686,-5.6887,-5.6953,-5.7021,-5.7077,-5.7049,-5.71,-5.7147,-5.7221,-5.7263,-5.7319,-5.7404,-5.7471,-5.7494,-5.7559,-5.7605,-5.7594,-5.7622,-5.7617,-5.7622,-5.7466,-5.744,-5.7629,-5.7629,-5.7629,-5.7629,-5.7629,-5.7629,-5.697,-5.7074,-5.708,-5.72,-5.7226,-5.7308,-5.7339,-5.7379,-5.7412,-5.7509,-5.7566,-5.7581,-5.7614,-5.7681,-5.7741,-5.7745,-5.7769,-5.7802,-5.7801,-5.7654,-5.7634,-5.7614,-5.759,-5.7807,-5.7808,-5.7952,-5.7953,-5.7955]}]]